Weather Roundup
Issued by NWS

Home | Current Version | Previous Version | Graphics & Text | Print | Product List | Glossary Off
Versions: 1 2 3 4 5 6 7 8 9 10 11 12 13 14 15 16 17 18 19 20 21 22 23 24 25 26 27 28 29 30 31 32 33 34 35 36 37 38 39 40 41 42 43 44 45 46 47 48 49 50

000
NZUS93 KARX 280459
HRRWXR

CURRENT HOURLY OBSERVATIONS ACROSS
MUCH OF THE UPPER MISSISSIPPI VALLEY
NATIONAL WEATHER SERVICE LA CROSSE WI
1200 AM CDT TUE JUL 28 2015


...SOUTHEAST MINNESOTA...


CITY           SKY/WX    TMP DP  RH WIND       PRES   REMARKS
ROCHESTER      CLEAR     71  69  93 SE8       29.97S
ROCHESTER/MAYO FAIR      73  71  93 SE8       29.96F
WINONA         CLEAR     73  70  88 SE3       29.96S
AUSTIN         CLEAR     73  72  94 SE7       29.95F
ALBERT LEA     PTCLDY    73  73 100 SE8       29.94S
DODGE CENTER   CLEAR     72  70  94 SE8       29.96S FOG
PRESTON        CLEAR     72  68  88 SE5       29.99R
OWATONNA       CLEAR     75  72  88 SE8       29.93S
FARIBAULT      NOT AVBL
$$

...ELSEWHERE IN MINNESOTA...


CITY           SKY/WX    TMP DP  RH WIND       PRES   REMARKS
MINNEAPOLIS    PTCLDY    77  71  82 SE13      29.91S
INTNL FALLS    CLEAR     74  66  76 SE3       29.90S
DULUTH         CLEAR     71  64  78 SE6       29.96S
RED WING       CLEAR     77  70  78 SE8       29.93S
REDWOOD FALLS  CLEAR     73  68  84 SE12      29.85F
MANKATO        CLEAR     73  70  88 S13       29.91S
WORTHINGTON    PTCLDY    72  64  78 S14G20    29.87F
FAIRMONT       CLEAR     72  61  68 SE14      29.90F
$$

...SOUTHWEST WISCONSIN...


CITY           SKY/WX    TMP DP  RH WIND       PRES   REMARKS
LA CROSSE      CLEAR     73  69  87 E5        29.96R
PRAIRIE DU CHI PTCLDY    75  69  82 E3        29.95S
BOSCOBEL       PTCLDY    73  69  87 VRB3      29.97F
LONE ROCK      NOT AVBL
PLATTEVILLE    CLEAR     73  70  89 E9        29.98F
FORT MC COY    CLEAR     70  67  89 E5        29.99S
CAMP DOUGLAS   CLEAR     66  66 100 CALM      30.00R
VIROQUA        FAIR      71  71 100 SE7       30.00F
WIS DELLS      CLEAR     72  62  70 SE6       30.00F
$$

...ELSEWHERE IN WISCONSIN...


CITY           SKY/WX    TMP DP  RH WIND       PRES   REMARKS
MILWAUKEE      MOCLDY    71  65  81 SE3       30.01F
MADISON        CLEAR     73  63  70 SE7       30.00F
GREEN BAY      CLEAR     63  61  93 CALM      30.03R
EAU CLAIRE     CLEAR     75  67  76 SE7       29.95S
BLACK RVR FLS  FAIR      67  66  98 CALM      29.97F
MEDFORD        CLEAR     69  63  82 SE3       30.03R
WAUSAU         CLEAR     70  64  81 E6        30.01S
WIS RAPIDS     CLEAR     72  61  68 SE5       30.02S
MARSHFIELD     CLEAR     71  61  70 S7        30.02R
RICE LAKE      CLEAR     73  67  81 SE6       29.98S
$$

...NORTHEAST IOWA...


CITY           SKY/WX    TMP DP  RH WIND       PRES   REMARKS
DECORAH        CLEAR     72  70  94 CALM      29.97S
MASON CITY     CLEAR     71  70  96 SE8       29.96S
CHARLES CITY   CLEAR     73  73 100 SE8       29.96S
OELWEIN          N/A     72  72 100 SE5       29.97S
$$

...ELSEWHERE IN IOWA...


CITY           SKY/WX    TMP DP  RH WIND       PRES   REMARKS
DES MOINES     PTCLDY    74  69  85 SE6       29.91S
IOWA CITY      PTCLDY    74  72  93 E5        29.95S
FORT DODGE     PTCLDY    70  66  88 SE5       29.92F
$$

...NORTHERN ILLINOIS...


CITY           SKY/WX    TMP DP  RH WIND       PRES   REMARKS
CHICAGO-OHARE  MOCLDY    74  66  76 E8        30.00F
CHICAGO-MIDWAY MOCLDY    77  66  68 E9        30.00F
MOLINE         PTCLDY    74  71  91 CALM      29.94S
ROCKFORD       MOCLDY    72  63  73 E6        30.00F
PEORIA         CLOUDY    79  71  76 E7        29.95S
$$

NOTE: "FAIR" INDICATES FEW OR NO CLOUDS BELOW 12,000 FEET WITH NO
SIGNIFICANT WEATHER AND/OR OBSTRUCTIONS TO VISIBILITY. WIND
SPEEDS ARE IN MILES-PER-HOUR.



USA.gov is the U.S. government's official web portal to all federal, state and local government web resources and services.